SL-8 R/B

Satellite information

Favourite Embed

Satellite Type and Status

ROCKET BODYIN ORBIT

Key statistics

Satellite SL-8 R/B at a glance.

Uptime

14908

Days in orbit

Revolutions

≈ 13.8

Per day

Orbit

LEO

Low Earth Orbit

Inclination

82.9

Latest

Satellite identification and parameters

Extended collection of information and parameters for SL-8 R/B.

Object identification

Identified? True

Debris? False

Object name: SL-8 R/B

International designator: 1984-100B

Object number (NORAD): 15293

Object ID (CCSDS): 15293

Country: COMMONWEALTH OF INDEPENDENT STATES (CIS)

Current information (Y/N): Y

RCS size: LARGE

Orbital parameters

Period: 104.699 minutes

Inclination: 82.9392 deg

SMA: 7358.477 km

Apoapsis: 997.499 km

Periapsis: 963.185 km

RAAN: 27.2262 deg

Eccentricy: 0.0023316

Argument of periapsis: 131.4493 deg

Mean anomaly: 228.8671 deg

Mean motion: 13.75374059 rev/day

Mean motion (dot): 0.00000137 rev/day2

B* drag term: 0.00012656 1/REarth

Two-line elements (TLE)

Creation date: July 8, 2025, 2:27 a.m.

Reference frame: TEME

Reference center: EARTH

Epoch: July 7, 2025, 10:20 p.m. UTC

TLE line 0: 0 SL-8 R/B

TLE line 1: 1 15293U 84100B 25188.93067927 .00000137 00000-0 12656-3 0 9994

TLE line 2: 2 15293 82.9392 27.2262 0023316 131.4493 228.8671 13.75374059991788

Live tracking on map

Real-time ground track for satellite SL-8 R/B.

In-orbit conjunctions

A list of the most updated potential collisions computed for object SL-8 R/B.

Target Orbit TCA Probability of collision Miss distance Type
COSMOS 1275 DEB LEO 2025-05-09 11:59:00 0.0005208849 165.0 (m) DEBRIS
FENGYUN 1C DEB SSO 2024-11-25 19:34:24 0.0001675035 190.0 (m) DEBRIS
COSMOS 842 LEO 2024-06-27 04:34:55 0.0001313209 343.0 (m) PAYLOAD

Associated space launch

Film-return reconnaissance satellite

SL-8 R/B was lifted into orbit during the mission ‘Soyuz U | Zenit-4MKT 26 (Kosmos 1597)’, on board a Soyuz U space rocket.

The launch took place on Sept. 13, 1984, 10:25 a.m. from 43/4 (43R).

For more information about the launch, click the button.

Launch to space Soyuz U | Zenit-4MKT 26 (Kosmos 1597)
Soyuz U | Zenit-4MKT 26 (Kosmos 1597)

Agency: N/A

Status: Launch Successful

Launch date: Sept. 13, 1984, 10:25 a.m. UTC

Rocket: Soyuz U

Launch pad: 43/4 (43R)

Location: Plesetsk Cosmodrome, Russian Federation

...

Latest news about this satellite

There are no fresh news available about this satellite. Check back as we update our databases every day.


Newsletter sign-up

Weekly statistics, charts and insights to help you stay on top of the space industry.